CW8680 Weather Reports


time (UTC)temp
C
wind
direction
speed
KPH
gust
KPH
rain 1hr
cm
rain 24hr
cm
rain mn
cm
humidity
%
barometer
mb
20260510220059 15 237 3.2 0.0 0.00 0.00 0.13 86 1012.8
20260510214559 15 279 1.6 0.0 0.00 0.00 0.13 88 1012.7
20260510213058 14 255 1.6 0.0 0.00 0.00 0.13 88 1012.8
20260510211604 15 248 3.2 0.0 0.00 0.00 0.13 87 1012.6
20260510210058 15 296 4.8 0.0 0.00 0.00 0.10 84 1012.3
20260510204603 15 290 3.2 0.0 0.00 0.00 0.08 85 1012.2
20260510203056 16 234 6.4 0.0 0.00 0.00 0.08 83 1012.3
20260510201555 18 285 4.8 0.0 0.00 0.00 0.00 72 1011.8
20260510200108 18 290 6.4 0.0 0.00 0.00 0.00 74 1012.1
20260510194607 19 234 4.8 0.0 0.00 0.00 0.00 73 1012.2
20260510193109 19 281 4.8 0.0 0.00 0.00 0.00 72 1012.3
20260510191554 19 155 4.8 0.0 0.00 0.00 0.00 73 1012.1
20260510190055 19 264 4.8 0.0 0.00 0.00 0.00 70 1012.1
20260510184600 19 289 6.4 0.0 0.00 0.00 0.00 71 1012.2
20260510183052 20 192 6.4 0.0 0.00 0.00 0.00 72 1012.2
20260510181551 20 249 4.8 0.0 0.00 0.00 0.00 74 1012.2
20260510180054 20 163 6.4 0.0 0.00 0.00 0.00 71 1012.4
20260510174554 19 147 3.2 0.0 0.00 0.00 0.00 76 1012.5
20260510173045 18 183 4.8 0.0 0.00 0.00 0.00 76 1012.2
20260510171541 17 196 4.8 0.0 0.00 0.00 0.00 82 1012.3
20260510170041 17 217 4.8 0.0 0.00 0.00 0.00 80 1012.6
20260510164550 18 299 3.2 0.0 0.00 0.00 0.00 79 1012.4
20260510163040 18 221 4.8 0.0 0.00 0.00 0.00 79 1012.7
20260510161537 17 173 4.8 0.0 0.00 0.00 0.00 81 1012.7
20260510160037 17 289 6.4 0.0 0.00 0.00 0.00 82 1012.7
20260510154533 17 107 4.8 0.0 0.00 0.00 0.00 83 1012.9
20260510153032 16 192 4.8 0.0 0.00 0.00 0.00 85 1013.0
20260510151529 16 254 4.8 0.0 0.00 0.00 0.00 86 1013.0
20260510150028 16 286 3.2 0.0 0.00 0.00 0.00 87 1013.1
20260510144525 15 182 3.2 0.0 0.00 0.00 0.00 89 1012.9
20260510143020 14 207 1.6 0.0 0.00 0.00 0.00 91 1012.8
20260510141516 13 189 1.6 0.0 0.00 0.00 0.00 94 1012.8
20260510140014 12 279 1.6 0.0 0.00 0.00 0.00 95 1012.7
20260510134512 12 140 1.6 0.0 0.00 0.00 0.00 95 1012.6
20260510133010 11 220 1.6 0.0 0.00 0.00 0.00 95 1012.5
20260510131509 11 184 3.2 0.0 0.00 0.00 0.00 95 1012.7
20260510130009 11 223 1.6 0.0 0.00 0.00 0.00 96 1012.7
20260510124506 11 244 3.2 0.0 0.00 0.00 0.00 96 1012.6
20260510123005 11 234 1.6 0.0 0.00 0.00 0.00 96 1012.5
20260510121501 11 244 1.6 0.0 0.00 0.00 0.00 96 1012.3
20260510120058 10 306 1.6 0.0 0.00 0.00 0.00 96 1012.1
20260510114612 10 223 1.6 0.0 0.00 0.00 0.00 96 1012.0
20260510113059 10 174 0.0 0.0 0.00 0.00 0.00 96 1011.8
20260510111557 10 161 1.6 0.0 0.00 0.00 0.00 96 1011.7
20260510110054 10 157 0.0 0.0 0.00 0.00 0.00 96 1011.5
20260510104600 10 242 1.6 0.0 0.00 0.00 0.00 96 1011.5
20260510103053 10 216 1.6 0.0 0.00 0.00 0.00 96 1011.3
20260510101602 10 173 1.6 0.0 0.00 0.00 0.00 96 1011.3
20260510100101 10 220 3.2 0.0 0.00 0.00 0.00 96 1011.4
20260510094603 10 178 3.2 0.0 0.00 0.00 0.00 96 1011.6
20260510093052 9 223 3.2 0.0 0.00 0.00 0.00 96 1011.5
20260510091551 10 199 3.2 0.0 0.00 0.00 0.00 96 1011.5
20260510090052 10 289 1.6 0.0 0.00 0.00 0.00 96 1011.7
20260510084548 10 258 4.8 0.0 0.00 0.00 0.00 96 1011.8
20260510083047 10 248 1.6 0.0 0.00 0.00 0.00 96 1011.7
20260510081545 10 279 3.2 0.0 0.00 0.00 0.00 96 1011.7
20260510080048 10 240 1.6 0.0 0.00 0.00 0.00 96 1011.3
20260510074546 10 245 0.0 0.0 0.00 0.00 0.00 96 1011.1
20260510073046 10 245 0.0 0.0 0.00 0.00 0.00 96 1011.2
20260510071542 10 198 1.6 0.0 0.00 0.00 0.00 95 1011.2
20260510070055 10 198 1.6 0.0 0.00 0.00 0.00 95 1011.3
20260510064548 10 258 1.6 0.0 0.00 0.00 0.00 96 1011.3
20260510063043 10 227 1.6 0.0 0.00 0.00 0.00 96 1011.2
20260510061539 10 227 1.6 0.0 0.00 0.00 0.00 96 1010.8
20260510060041 10 209 0.0 0.0 0.00 0.00 0.00 96 1010.8
20260510054538 10 199 1.6 0.0 0.00 0.00 0.00 96 1010.9
20260510053036 10 232 1.6 0.0 0.00 0.00 0.00 95 1011.0
20260510051536 10 254 1.6 0.0 0.00 0.00 0.00 96 1011.2
20260510050035 10 264 0.0 0.0 0.00 0.00 0.00 96 1011.2
20260510044533 10 264 1.6 0.0 0.00 0.00 0.00 95 1011.1
20260510043033 10 209 1.6 0.0 0.00 0.00 0.00 95 1011.2
20260510041544 10 235 1.6 0.0 0.00 0.00 0.00 95 1011.0
20260510040028 10 212 1.6 0.0 0.00 0.00 0.00 95 1010.9
20260510034529 10 227 1.6 0.0 0.00 0.00 2.06 95 1010.9
20260510033026 10 177 3.2 0.0 0.00 0.00 2.06 95 1011.1
20260510031530 10 197 1.6 0.0 0.00 0.00 2.06 95 1011.2
20260510030026 10 231 1.6 0.0 0.00 0.00 2.06 95 1011.2
20260510024527 10 225 1.6 0.0 0.00 0.00 2.06 95 1011.1
20260510023025 10 107 1.6 0.0 0.00 0.00 2.06 95 1011.0
20260510021534 10 212 1.6 0.0 0.00 0.00 2.06 95 1011.1
20260510020029 10 262 0.0 0.0 0.00 0.00 2.06 95 1011.1
20260510014524 10 141 1.6 0.0 0.00 0.00 2.06 95 1011.1
20260510013025 10 148 1.6 0.0 0.00 0.00 2.06 95 1011.1
20260510011523 11 100 1.6 0.0 0.00 0.00 2.06 95 1010.9
20260510010023 11 119 0.0 0.0 0.00 0.00 2.06 95 1010.9
20260510004522 11 193 1.6 0.0 0.00 0.00 2.06 94 1010.7
20260510003022 11 115 0.0 0.0 0.00 0.00 2.06 94 1010.3
20260510001534 11 85 0.0 0.0 0.00 0.00 2.06 94 1010.4
20260510000020 11 85 1.6 0.0 0.00 0.00 2.06 94 1010.3
20260509234519 11 147 0.0 0.0 0.00 0.00 2.06 94 1010.5
20260509233019 11 147 0.0 0.0 0.00 0.00 2.06 94 1010.4
20260509231517 11 128 1.6 0.0 0.00 0.00 2.03 94 1010.5
20260509230019 11 111 1.6 0.0 0.00 0.00 1.98 94 1010.8
20260509224516 11 185 0.0 0.0 0.00 0.00 1.91 94 1011.1
20260509223016 11 189 0.0 0.0 0.00 0.00 1.78 94 1011.1
20260509221515 11 215 1.6 0.0 0.00 0.00 1.70 94 1011.2